Weather History for CYFC - October, 2013

Change the Weather History Date:

Wednesday, October 9, 2013

  Actual Average Record
Temperature  
Mean Temperature 46 °F -  
Max Temperature 64 °F 52 °F 82 °F (2011)
Min Temperature 29 °F 32 °F 28 °F (2001)
Degree Days  
Heating Degree Days 18    
Moisture  
Dew Point 37 °F    
Average Humidity 74    
Maximum Humidity 100    
Minimum Humidity 27    
Precipitation  
Precipitation 0.00 in 0.13 in - ()
Sea Level Pressure  
Sea Level Pressure 30.38 in    
Wind  
Wind Speed 4 mph ()    
Max Wind Speed 10 mph    
Max Gust Speed -    
Visibility 9.1 miles    
Events      
Averages and records for this station are not official NWS values.
T = Trace of Precipitation, MM = Missing Value Source: Averaged Metar Reports

Daily Weather History Graph

Daily Weather History Graph

Search for Another Location

Airport or City:

Trip Planner

Search our weather history database for the weather conditions in past years. The results will help you decide how hot, cold, wet, or windy it might be!

Date:

Astronomy

Oct. 09, 2013 Rise Set
Actual Time 7:35 AM ADT 6:50 PM ADT
Civil Twilight 7:05 AM ADT 7:20 PM ADT
Nautical Twilight 6:30 AM ADT 7:55 PM ADT
Astronomical Twilight 5:56 AM ADT 8:29 PM ADT
Moon 12:39 PM ADT (10/9) 10:08 PM ADT (10/9)
Length of Visible Light 12h 15m
Length of Day
11h 15m
Waxing Crescent, 25% of the Moon is Illuminated
Oct 9
Waxing Crescent
Oct 11
First Quarter
Oct 18
Full
Oct 26
Last Quarter
Nov 3
New

Hourly Weather History & Observations

Time (ADT) Temp. Windchill Dew Point Humidity Pressure Visibility Wind Dir Wind Speed Gust Speed Precip Events Conditions
12:00 AM 35.6 °F 31.7 °F 35.6 °F 100% 30.32 in 9.0 mi WSW 4.6 mph - N/A   Clear
1:00 AM 35.6 °F 31.7 °F 33.8 °F 93% 30.35 in 9.0 mi South 4.6 mph - N/A   Clear
2:00 AM 35.6 °F - 33.8 °F 93% 30.36 in 9.0 mi South 2.3 mph - N/A   Clear
3:00 AM 36 °F - 35 °F 93% 30.37 in 10 mi South 3.5 mph - -  
3:00 AM 35.6 °F 31.7 °F 35.6 °F 100% 30.37 in 9.0 mi SSW 4.6 mph - N/A   Clear
4:00 AM 35.6 °F - 35.6 °F 100% 30.37 in 9.0 mi SW 2.3 mph - N/A   Clear
5:00 AM 33.8 °F 30.8 °F 33.8 °F 100% 30.40 in 9.0 mi SW 3.5 mph - N/A   Clear
6:00 AM 33.8 °F 30.8 °F 32.0 °F 93% 30.41 in 9.0 mi WSW 3.5 mph - N/A   Clear
7:00 AM 32.0 °F 27.5 °F 32.0 °F 100% 30.43 in 9.0 mi SW 4.6 mph - N/A   Clear
8:00 AM 30.2 °F 24.3 °F 30.2 °F 100% 30.45 in 9.0 mi South 5.8 mph - N/A   Clear
9:00 AM 37 °F - 35 °F 90% 30.47 in 10 mi SW 2.3 mph - -  
9:00 AM 37.4 °F - 35.6 °F 93% 30.46 in 9.0 mi SSW 2.3 mph - N/A   Clear
10:00 AM 44.6 °F - 39.2 °F 81% 30.45 in 9.0 mi Variable 2.3 mph - N/A   Clear
11:00 AM 53.6 °F - 41.0 °F 62% 30.45 in 9.0 mi NNW 6.9 mph - N/A   Clear
12:00 PM 57.2 °F - 39.2 °F 51% 30.43 in 9.0 mi NW 8.1 mph - N/A   Clear
1:00 PM 60.8 °F - 39.2 °F 45% 30.42 in 9.0 mi NNW 6.9 mph - N/A   Clear
2:00 PM 60.8 °F - 39.2 °F 45% 30.40 in 9.0 mi Variable 3.5 mph - N/A   Clear
3:00 PM 63 °F - 37 °F 27% 30.38 in 10 mi NW 3.5 mph - -  
3:00 PM 62.6 °F - 37.4 °F 39% 30.38 in 9.0 mi WNW 3.5 mph - N/A   Clear
4:00 PM 64.4 °F - 35.6 °F 34% 30.36 in 9.0 mi WSW 4.6 mph - N/A   Clear
5:00 PM 64.4 °F - 35.6 °F 34% 30.35 in 9.0 mi SW 6.9 mph - N/A   Clear
6:00 PM 60.8 °F - 39.2 °F 45% 30.34 in 9.0 mi WSW 3.5 mph - N/A   Clear
7:00 PM 55.4 °F - 42.8 °F 63% 30.34 in 9.0 mi Calm Calm - N/A   Clear
8:00 PM 51.8 °F - 42.8 °F 71% 30.34 in 9.0 mi SW 5.8 mph - N/A   Clear
9:00 PM 46 °F - 41 °F 77% 30.33 in 10 mi South 5.8 mph - -  
9:00 PM 46.4 °F 43.5 °F 41.0 °F 81% 30.33 in 9.0 mi South 5.8 mph - N/A   Clear
10:00 PM 44.6 °F 40.7 °F 41.0 °F 87% 30.34 in 9.0 mi SSW 6.9 mph - N/A   Clear
11:00 PM 46.4 °F 41.5 °F 42.8 °F 87% 30.33 in 9.0 mi SSW 10.4 mph - N/A   Clear